Skip Page Navigation
NASA JPL Caltech
NASA Logo - Jet Propulsion Laboratory + View the NASA Portal
+ Center for Near-Earth Object Studies
JPL Home Earth Solar System Stars & Galaxies Technology
JPL Solar System Dynamics
BODIES ORBITS EPHEMERIDES TOOLS PHYSICAL DATA DISCOVERY FAQ SITE MAP
IMPORTANT: The SSD Announcement email list is now available. Major changes are coming in the near future, including possible hostname and/or URL changes. To be notified of such changes, subscribe to this email list.

Please visit this page for more details.


JPL Small-Body Database Browser
Search: [ help ]  
74103 (1998 QP31)
Classification: Main-belt Asteroid          SPK-ID: 2074103
Ephemeris | Orbit Diagram | Orbital Elements | Mission Design | Physical Parameters | Discovery Circumstances ]

[ show orbit diagram ]
Orbital Elements at Epoch 2458600.5 (2019-Apr-27.0) TDB
Reference: JPL 24 (heliocentric ecliptic J2000)
 Element Value Uncertainty (1-sigma)   Units 
e .08169506548283838 4.4358e-08  
a 2.306580010876255 8.6617e-09 au
q 2.118143805846314 1.0125e-07 au
i 6.490872889195873 4.2462e-06 deg
node 107.5590647408213 3.6436e-05 deg
peri 31.61869398617197 4.5125e-05 deg
M 159.4635352710224 2.7767e-05 deg
tp 2458033.725763905853
(2017-Oct-07.22576391)
9.6909e-05 TDB
period 1279.532180489484
3.50
7.2074e-06
1.973e-08
d
yr
n .2813528299556189 1.5848e-09 deg/d
Q 2.495016215906197 9.3693e-09 au
  Orbit Determination Parameters
   # obs. used (total)      1419  
   data-arc span      7783 days (21.31 yr)  
   first obs. used      1998-07-31  
   last obs. used      2019-11-21  
   planetary ephem.      DE431  
   SB-pert. ephem.      SB431-N16  
   condition code      0  
   norm. resid. RMS      .51968  
   source      ORB  
   producer      Otto Matic  
   solution date      2019-Dec-14 07:24:34  

Additional Information
 Earth MOID = 1.13532 au 
 Jupiter MOID = 2.52267 au 
 T_jup = 3.575 
[ hide covariance matrix ]
Orbital Elements at Epoch 2456678.5 (2014-Jan-21.0) TDB
Reference: JPL 24 (heliocentric ecliptic J2000)
 Element Value Uncertainty (1-sigma)   Units 
e .08155434747929052 4.4262e-08  
q 2.119198555726401 1.0105e-07 au
tp 2456752.602658737004
(2014-Apr-05.10265874)
9.3548e-05 TDB
node 107.5992428647738 3.6459e-05 deg
peri 31.27419988124379 4.5218e-05 deg
i 6.488582758059168 4.2442e-06 deg
  Orbit Determination Parameters
   # obs. used (total)      1419  
   data-arc span      7783 days (21.31 yr)  
   first obs. used      1998-07-31  
   last obs. used      2019-11-21  
   planetary ephem.      DE431  
   SB-pert. ephem.      SB431-N16  
   condition code      0  
   norm. resid. RMS      .51968  
   source      ORB  
   producer      Otto Matic  
   solution date      2019-Dec-14 07:24:34  

Additional Information
 Jupiter MOID = 2.52267 au 
 T_jup = 3.575 
Orbit Covariance (6×6)
  e q tp node peri i
e 1.95910881778791E-15 -4.458971731205014E-15 8.585351423684276E-13 -1.285813387657201E-14 2.954125874932541E-13 -3.544270247945527E-16
q -4.458971731205014E-15 1.021050066857041E-14 -1.604188964412565E-12 2.914402620471891E-14 -5.764564835352588E-13 9.420697428314076E-16
tp 8.585351423684276E-13 -1.604188964412565E-12 8.751292209762605E-9 -1.378759610087939E-11 2.514710115041853E-9 -5.422695592190081E-14
node -1.285813387657201E-14 2.914402620471891E-14 -1.378759610087939E-11 1.329227275893801E-9 -1.324679915225051E-9 3.767517804077018E-11
peri 2.954125874932541E-13 -5.764564835352588E-13 2.514710115041853E-9 -1.324679915225051E-9 2.044651925680268E-9 -3.748167601524989E-11
i -3.544270247945527E-16 9.420697428314076E-16 -5.422695592190081E-14 3.767517804077018E-11 -3.748167601524989E-11 1.801321525855864E-11

Ephemeris | Orbit Diagram | Orbital Elements | Mission Design | Physical Parameters | Discovery Circumstances ]

Physical Parameter Table
Parameter Symbol Value Units Sigma Reference Notes
absolute magnitude H 14.6   n/a MPO395673  
diameter diameter 2.676 km 0.351 urn:nasa:pds:neowise_diameters_albedos::2.0[mainbelt] (http://adsabs.harvard.edu/abs/2011ApJ...741...68M)  
rotation period rot_per 6.19 h n/a LCDB (Rev. 2019-January); Warner et al., 2009 Result based on less than full coverage, so that the period may be wrong by 30 percent or so.
Published Reference List:
[Chang, C.K.; Ip, W.-H.; Lin, H.-W.; Cheng, Y.C.; et al. (2015) Astrophys. J. Supp. Ser. 219, A27.]
geometric albedo albedo 0.429   0.088 urn:nasa:pds:neowise_diameters_albedos::2.0[mainbelt] (http://adsabs.harvard.edu/abs/2011ApJ...741...68M)  

74103 (1998 QP31)          Discovered 1998-Aug-17 by LINEAR at Socorro
Reference: 20040415/Numbers.arcLast Updated: 2004-04-19
Ephemeris | Orbit Diagram | Orbital Elements | Mission Design | Physical Parameters | Discovery Circumstances ]
ABOUT SSD CREDITS/AWARDS PRIVACY/COPYRIGHT GLOSSARY LINKS
FirstGov 2020-Jan-28 17:52 UT
(server date/time)  
NASA Home Page
Site Manager:   Ryan S. Park
Webmaster  Alan B. Chamberlin